Volver al catálogo

FREGAT DEB

ActivoLEO
NORAD 45649·DEBRIS·🇷🇺 Russia

Lanzado Jul 18, 2011 desde Baikonur Cosmodrome

Loading…

Próximos Pases (próximas 24 horas)

TLE

ActualizadoSource: Space-Track

Época: Sep 13, 2026, 21:59 UTC

1 45649U 11037AR  26256.91633492  .00055154  00000-0  40812-1 0  9994
2 45649  51.5408  66.0809 0681241 191.7042 166.7286 13.18743039274769

Sigue FREGAT DEB en tiempo real con AllMySat

Download on the App Store